Location: Écuvilly
(49.6505°N, 2.9206°E)
Time: 05:38:01
(UTC+00:00)

Geosat - Pass Details

Date: 17 November 2025
Orbit: 757 x 760 km, 108.0° (Epoch: 16 December)

Event Time Altitude Azimuth Distance (km) Brightness Sun altitude
Exits shadow 18:04:19 33° 114° (ESE) 1,260 4.7 -19.4°
Maximum altitude 18:06:20 56° 54° (NE) 908 4.0 -19.7°
Drops below altitude 10° 18:11:13 10° 337° (NNW) 2,302 6.7 -20.5°
Sets 18:13:32 0° 333° (NNW) 3,232 7.5 -20.9°
